Regional Weather Roundup
Issued by NWS

Home | Current Version | Previous Version | Graphics & Text | Print | Product List | Glossary On
Versions: 1 2 3 4 5 6 7 8 9 10 11 12 13 14 15 16 17 18 19 20 21 22 23 24 25 26 27 28 29 30 31 32 33 34 35 36 37 38 39 40 41 42 43 44 45 46 47 48
000
ASUS45 KBOU 250807
RWRCO

WEATHER ROUNDUP FOR COLORADO
NATIONAL WEATHER SERVICE DENVER/BOULDER CO
100 AM MST THU DEC 25 2014

NOTE: "FAIR" INDICATES FEW OR NO CLOUDS BELOW 12000 FEET WITH NO
SIGNIFICANT WEATHER AND/OR OBSTRUCTIONS TO VISIBILITY.

COZ001>005-013-030-031-250900-
...NORTHWEST COLORADO...

CITY           SKY/WX    TMP DP  RH WIND       PRES   REMARKS
CRAIG          CLOUDY    27  19  72 CALM      29.55F
HAYDEN         CLOUDY    25  19  80 SE9       29.56F WCI  15
MEEKER         CLOUDY    34  16  47 SW7       29.57F WCI  28
MOUNT WERNER   NOT AVBL
STEAMBOAT SPGS CLOUDY    18  15  91 SE5       29.56S WCI  11
WALDEN         PTCLDY    25  14  63 S14       29.52F WCI  13
$$

COZ006>008-011-250900-
...WEST CENTRAL VALLEYS...

CITY           SKY/WX    TMP DP  RH WIND       PRES   REMARKS
GRAND JUNCTION CLOUDY    27  21  78 E3        29.63F
MONTROSE       CLOUDY    28  18  66 S8        29.66F WCI  20
EAGLE          CLOUDY    16  10  79 NE5       29.66S WCI   9
RIFLE          CLOUDY    26  16  65 E5        29.65F WCI  20
DELTA          CLOUDY    31  20  65 N7        29.67F WCI  24
NUCLA          CLOUDY    30  19  64 SE3       29.69F
$$

COZ017>023-064>068-250900-
...SOUTHWEST COLORADO...

CITY           SKY/WX    TMP DP  RH WIND       PRES   REMARKS
DURANGO        CLOUDY    24  17  74 E5        29.76F WCI  18
CORTEZ         PTCLDY    30  18  60 CALM      29.70F
PAGOSA SPRINGS CLOUDY    20   8  59 E5        29.78F WCI  13
TELLURIDE      CLOUDY    33  16  49 E10G23    29.68F WCI  25
WOLF CREEK PAS CLOUDY    12   5  73 MISG      29.74S
$$

COZ009-010-012-014-032>034-037-058>063-250900-
...CENTRAL COLORADO...

CITY           SKY/WX    TMP DP  RH WIND       PRES   REMARKS
ASPEN          CLOUDY    18  13  80 W5        29.59F WCI  11
BUENA VISTA    PTCLDY    22   9  57 CALM      29.61F
COPPER MTN     CLOUDY    25  14  63 SE13G23   29.60F WCI  13
BERTHOUD PASS  FAIR      18  12  79 MISG      29.58F
COTTONWOOD PAS MOCLDY    30  14  51 NW10G21   29.61F WCI  21
GUNNISON       CLOUDY     1 -26  27 CALM      29.77S
KREMMLING      MOCLDY     3   0  85 CALM      29.63F
LEADVILLE      PTCLDY    14   8  77 CALM      29.58F
MONARCH PASS   MOCLDY    14  10  85 MISG      29.74F
SALIDA         NOT AVBL
SUNLIGHT       CLOUDY   N/A N/A N/A MISG      29.60F HAZE
WILKERSON PASS CLEAR     19  10  68 SW12G21   29.60F WCI   7
$$

COZ069>075-250900-
...SAN LUIS VALLEY/SANGRE DE CRISTO MOUNTAINS...

CITY           SKY/WX    TMP DP  RH WIND       PRES   REMARKS
ALAMOSA        MOCLDY     5   0  79 NW3       29.72F
LA VETA PASS   NOT AVBL
SAGUACHE       MOCLDY     7  -2  66 NW10      29.73F WCI  -8
$$

COZ035-036-038>040-250900-
...NORTHERN COLORADO FRONT RANGE...

CITY           SKY/WX    TMP DP  RH WIND       PRES   REMARKS
DENVER INTL AP MOCLDY    39  16  39 SW14      29.44S
DMNS CITY PARK   N/A     34  15  46 S5        29.43F WCI  30
AURORA         MOCLDY    36  15  43 S15       29.44F
FRONT RANGE AP NOT AVBL
ERIE MUNI ARPT   N/A     46  17  31 W15       29.42F
BOULDER MUN AP PTCLDY    37  18  44 N5        29.42F
CENTENNIAL     MOCLDY    37  15  40 N3        29.45F
BROOMFIELD     PTCLDY    41  19  42 W9        29.44F
FORT COLLINS   PTCLDY    27  16  63 CALM      29.43F
LONGMONT       PTCLDY    37  17  42 S3        29.43F
$$

COZ041-046-047-076>085-087-088-250900-
...PIKES PEAK/PALMER DIVIDE AND SOUTHERN FOOTHILLS...

CITY           SKY/WX    TMP DP  RH WIND       PRES   REMARKS
COLO. SPRINGS  MOCLDY    34  12  40 N8        29.49F WCI  27
A. F. ACADEMY  PTCLDY    38   9  30 N7        29.49F
ELLICOTT       NOT AVBL
FALCON         MOCLDY    43  10  25 W18G25    29.50F
FORT CARSON    PTCLDY    33  15  46 N10       29.47F WCI  25
LIMON          CLOUDY    25  21  85 CALM      29.45F
MONUMENT HILL  MOCLDY    34  14  44 SW18      29.48F WCI  23
TRINIDAD       MOCLDY    29  16  58 NW10      29.55F WCI  20
$$

COZ042>045-048>051-090-091-250900-
...NORTHEAST COLORADO...

CITY           SKY/WX    TMP DP  RH WIND       PRES   REMARKS
GREELEY ARPT   MOCLDY    21  10  63 CALM      29.42F
AKRON          CLOUDY    33  23  66 W14       29.42F WCI  23
BURLINGTON     CLOUDY    35  22  58 S13       29.44F WCI  26
WRAY           CLOUDY    33  23  65 CALM      29.44F
STERLING       CLOUDY    27  23  86 CALM      29.43F
HOLYOKE        CLOUDY    28  23  80 CALM      29.45F
FORT MORGAN    CLOUDY    28  22  79 CALM      29.44F
$$

COZ086-089-092>099-250900-
...SOUTHEAST COLORADO...

CITY           SKY/WX    TMP DP  RH WIND       PRES   REMARKS
PUEBLO         MOCLDY    24  18  77 CALM      29.48F
LA JUNTA       CLOUDY    41  18  39 W7        29.49F
LAMAR          CLOUDY    30  23  75 SW7       29.48F WCI  23
SPRINGFIELD      N/A     32  21  64 W5        29.50F WCI  27
$$



USA.gov is the U.S. government's official web portal to all federal, state and local government web resources and services.